When you browse on this site, cookies collect data to enhance your experience and personalize the content and advertising you see.
Visit our Privacy Policy to learn more. By continuing to use the site, you agree to this use of cookies and data.
  • In Czech Republic
  • List of Countries
  • For 7 days
  • Water Temperature
  • Satellite Maps
  • Weather Map
  • Weather Widgets
  • user-avatar
    Login

    Hourly Weather Farim

    Today, 21 July, Sunday

    Time Temperature Precipitation Wind Pressure Humidity
    00:00 +26°C° 0.1 mm 1 mps 759 mmHg 92%
    01:00 +26°C° 0.1 mm 1 mps 759 mmHg 92%
    02:00 +26°C° 0.1 mm 1 mps 759 mmHg 92%
    03:00 +26°C° 0 mm 1 mps 759 mmHg 93%
    04:00 +26°C° 0 mm 1 mps 758 mmHg 93%
    05:00 +26°C° 0 mm 1 mps 758 mmHg 94%
    06:00 +26°C° 0 mm 1 mps 759 mmHg 90%
    07:00 +27°C° 0 mm 1 mps 759 mmHg 87%
    08:00 +28°C° 0 mm 2 mps 760 mmHg 84%
    09:00 +30°C° 0 mm 1 mps 760 mmHg 76%
    10:00 +32°C° 0 mm 1 mps 760 mmHg 69%
    11:00 +33°C° 0 mm 1 mps 760 mmHg 61%
    12:00 +34°C° 0 mm 1 mps 759 mmHg 59%
    13:00 +35°C° 0 mm 1 mps 758 mmHg 57%
    14:00 +33°C° 0 mm 0 mps 758 mmHg 56%
    15:00 +34°C° 1.1 mm 1 mps 758 mmHg 62%
    16:00 +33°C° 1.1 mm 1 mps 757 mmHg 68%
    17:00 +31°C° 1.1 mm 2 mps 757 mmHg 74%
    18:00 +30°C° 0.9 mm 2 mps 758 mmHg 80%
    19:00 +28°C° 0.9 mm 2 mps 758 mmHg 86%
    20:00 +27°C° 0.9 mm 2 mps 759 mmHg 92%
    21:00 +26°C° 0.2 mm 2 mps 759 mmHg 92%
    22:00 +26°C° 0.2 mm 2 mps 759 mmHg 93%
    23:00 +26°C° 0.2 mm 2 mps 759 mmHg 94%

    Tomorrow, 22 July, Monday

    Time Temperature Precipitation Wind Pressure Humidity
    00:00 +25°C° 0.3 mm 1 mps 759 mmHg 94%
    01:00 +25°C° 0.3 mm 1 mps 759 mmHg 95%
    02:00 +23°C° 0.3 mm 0 mps 758 mmHg 95%
    03:00 +25°C° 1 mm 1 mps 759 mmHg 96%
    04:00 +25°C° 1 mm 1 mps 759 mmHg 96%
    05:00 +25°C° 1 mm 1 mps 759 mmHg 96%
    06:00 +25°C° 0.1 mm 1 mps 759 mmHg 95%
    07:00 +26°C° 0.1 mm 2 mps 760 mmHg 94%
    08:00 +26°C° 0.1 mm 2 mps 760 mmHg 93%
    09:00 +27°C° 0 mm 2 mps 760 mmHg 88%
    10:00 +28°C° 0 mm 1 mps 759 mmHg 83%
    11:00 +29°C° 0 mm 1 mps 759 mmHg 78%
    12:00 +29°C° 0 mm 1 mps 758 mmHg 76%
    13:00 +30°C° 0 mm 1 mps 758 mmHg 74%
    14:00 +30°C° 0 mm 2 mps 757 mmHg 72%
    15:00 +30°C° 0 mm 2 mps 757 mmHg 74%
    16:00 +29°C° 0 mm 1 mps 757 mmHg 76%
    17:00 +29°C° 0 mm 1 mps 756 mmHg 78%
    18:00 +28°C° 0 mm 1 mps 757 mmHg 80%
    19:00 +28°C° 0 mm 1 mps 757 mmHg 83%
    20:00 +25°C° 0 mm 0 mps 758 mmHg 85%
    21:00 +25°C° 0 mm 0 mps 758 mmHg 87%
    22:00 +24°C° 0 mm 0 mps 758 mmHg 88%
    23:00 +24°C° 0 mm 0 mps 758 mmHg 89%

    Day after tomorrow, 23 July, Tuesday

    Time Temperature Precipitation Wind Pressure Humidity
    00:00 +24°C° 0 mm 0 mps 758 mmHg 90%
    01:00 +24°C° 0 mm 0 mps 757 mmHg 90%
    02:00 +23°C° 0 mm 0 mps 757 mmHg 91%
    03:00 +23°C° 0 mm 0 mps 757 mmHg 91%
    04:00 +23°C° 0 mm 0 mps 757 mmHg 92%
    05:00 +23°C° 0 mm 0 mps 757 mmHg 92%
    06:00 +24°C° 0 mm 0 mps 757 mmHg 87%
    07:00 +27°C° 0 mm 1 mps 758 mmHg 82%
    08:00 +29°C° 0 mm 1 mps 758 mmHg 77%
    09:00 +30°C° 0 mm 1 mps 758 mmHg 70%
    10:00 +32°C° 0 mm 1 mps 758 mmHg 64%
    11:00 +34°C° 0 mm 1 mps 758 mmHg 58%
    12:00 +35°C° 0 mm 2 mps 757 mmHg 57%
    13:00 +35°C° 0 mm 2 mps 756 mmHg 57%
    14:00 +36°C° 0 mm 3 mps 756 mmHg 56%
    15:00 +35°C° 0 mm 3 mps 756 mmHg 60%
    16:00 +34°C° 0 mm 3 mps 755 mmHg 63%
    17:00 +33°C° 0 mm 3 mps 755 mmHg 67%
    18:00 +31°C° 0 mm 3 mps 756 mmHg 72%
    19:00 +29°C° 0 mm 3 mps 756 mmHg 77%
    20:00 +28°C° 0 mm 3 mps 757 mmHg 82%
    21:00 +27°C° 1.1 mm 3 mps 758 mmHg 85%
    22:00 +27°C° 1.1 mm 3 mps 758 mmHg 89%
    23:00 +26°C° 1.1 mm 3 mps 759 mmHg 93%

    24 July, Wednesday

    Time Temperature Precipitation Wind Pressure Humidity
    00:00 +26°C° 0 mm 2 mps 758 mmHg 93%
    01:00 +26°C° 0 mm 2 mps 758 mmHg 94%
    02:00 +26°C° 0 mm 2 mps 757 mmHg 94%
    03:00 +26°C° 0 mm 1 mps 757 mmHg 94%
    04:00 +26°C° 0 mm 1 mps 757 mmHg 94%
    05:00 +24°C° 0 mm 0 mps 757 mmHg 94%
    06:00 +26°C° 0 mm 1 mps 757 mmHg 91%
    07:00 +27°C° 0 mm 1 mps 758 mmHg 88%
    08:00 +28°C° 0 mm 1 mps 758 mmHg 85%
    09:00 +29°C° 0.1 mm 1 mps 758 mmHg 77%
    10:00 +31°C° 0.1 mm 1 mps 758 mmHg 70%
    11:00 +33°C° 0.1 mm 1 mps 758 mmHg 62%
    12:00 +32°C° 0.9 mm 2 mps 758 mmHg 68%
    13:00 +30°C° 0.9 mm 2 mps 757 mmHg 74%
    14:00 +29°C° 0.9 mm 3 mps 757 mmHg 81%
    15:00 +29°C° 0 mm 3 mps 757 mmHg 79%
    16:00 +28°C° 0 mm 3 mps 757 mmHg 78%
    17:00 +28°C° 0 mm 4 mps 757 mmHg 77%
    18:00 +27°C° 0 mm 3 mps 758 mmHg 80%
    19:00 +26°C° 0 mm 2 mps 758 mmHg 82%
    20:00 +25°C° 0 mm 1 mps 758 mmHg 85%
    21:00 +25°C° 0 mm 1 mps 758 mmHg 86%
    22:00 +25°C° 0 mm 1 mps 759 mmHg 87%
    23:00 +25°C° 0 mm 2 mps 759 mmHg 88%

    25 July, Thursday

    Time Temperature Precipitation Wind Pressure Humidity
    00:00 +25°C° 0 mm 1 mps 759 mmHg 89%
    01:00 +25°C° 0 mm 1 mps 758 mmHg 90%
    02:00 +25°C° 0 mm 1 mps 758 mmHg 91%
    03:00 +25°C° 0 mm 1 mps 758 mmHg 93%
    04:00 +25°C° 0 mm 1 mps 758 mmHg 95%
    05:00 +24°C° 0 mm 1 mps 758 mmHg 96%
    06:00 +26°C° 0 mm 1 mps 759 mmHg 92%
    07:00 +27°C° 0 mm 1 mps 759 mmHg 88%
    08:00 +28°C° 0 mm 2 mps 759 mmHg 83%
    09:00 +29°C° 0 mm 2 mps 759 mmHg 77%
    10:00 +30°C° 0 mm 2 mps 759 mmHg 72%
    11:00 +32°C° 0 mm 2 mps 759 mmHg 66%
    12:00 +31°C° 1.4 mm 2 mps 759 mmHg 69%
    13:00 +31°C° 1.4 mm 2 mps 758 mmHg 72%
    14:00 +31°C° 1.4 mm 1 mps 757 mmHg 75%
    15:00 +30°C° 0.1 mm 2 mps 757 mmHg 78%
    16:00 +30°C° 0.1 mm 2 mps 757 mmHg 80%
    17:00 +29°C° 0.1 mm 2 mps 757 mmHg 82%
    18:00 +28°C° 0.7 mm 2 mps 758 mmHg 84%
    19:00 +28°C° 0.7 mm 2 mps 758 mmHg 87%
    20:00 +27°C° 0.7 mm 2 mps 759 mmHg 89%
    21:00 +27°C° 0 mm 2 mps 759 mmHg 90%
    22:00 +26°C° 0 mm 2 mps 759 mmHg 91%
    23:00 +26°C° 0 mm 1 mps 760 mmHg 92%

    26 July, Friday

    Time Temperature Precipitation Wind Pressure Humidity
    00:00 +26°C° 0 mm 1 mps 759 mmHg 92%
    01:00 +26°C° 0 mm 1 mps 759 mmHg 93%
    02:00 +26°C° 0 mm 1 mps 759 mmHg 94%
    03:00 +25°C° 0 mm 1 mps 759 mmHg 94%
    04:00 +25°C° 0 mm 1 mps 759 mmHg 94%
    05:00 +23°C° 0 mm 0 mps 759 mmHg 95%
    06:00 +26°C° 0 mm 1 mps 759 mmHg 90%
    07:00 +27°C° 0 mm 1 mps 760 mmHg 86%
    08:00 +28°C° 0 mm 1 mps 760 mmHg 81%
    09:00 +30°C° 0 mm 1 mps 760 mmHg 75%
    10:00 +31°C° 0 mm 1 mps 760 mmHg 69%
    11:00 +33°C° 0 mm 1 mps 760 mmHg 63%
    12:00 +34°C° 0 mm 1 mps 759 mmHg 60%
    13:00 +34°C° 0 mm 1 mps 758 mmHg 58%
    14:00 +35°C° 0 mm 1 mps 757 mmHg 55%
    15:00 +34°C° 1.1 mm 1 mps 757 mmHg 62%
    16:00 +33°C° 1.1 mm 1 mps 757 mmHg 68%
    17:00 +32°C° 1.1 mm 2 mps 757 mmHg 75%
    18:00 +30°C° 1 mm 2 mps 757 mmHg 80%
    19:00 +29°C° 1 mm 2 mps 758 mmHg 86%
    20:00 +27°C° 1 mm 2 mps 758 mmHg 92%
    21:00 +27°C° 0.2 mm 2 mps 758 mmHg 92%
    22:00 +27°C° 0.2 mm 2 mps 759 mmHg 93%
    23:00 +26°C° 0.2 mm 2 mps 759 mmHg 94%
    Show more